Miscellaneous Local Product
Issued by NWS Hastings, NE

Home | Current Version | Previous Version | Text Only | Print | Product List | Glossary Off
Versions: 1 2 3 4 5 6 7 8 9 10 11 12 13 14 15 16 17 18 19 20 21 22 23 24 25 26 27 28 29 30 31 32 33 34 35 36 37 38 39 40 41 42 43 44 45 46 47 48 49 50

000
AXUS43 KGID 252302
MISGRI

GID CWA HOURLY WEATHER ROUNDUP
NATIONAL WEATHER SERVICE HASTINGS NE
600 PM CDT WED MAR 25 2015

NOTE: "FAIR" INDICATES FEW OR NO CLOUDS BELOW 12,000 FEET WITH NO
SIGNIFICANT WEATHER AND/OR OBSTRUCTIONS TO VISIBILITY.

...SOUTH CENTRAL NEBRASKA...

CITY           SKY/WX    TMP DP  RH WIND       PRES   REMARKS
GRAND ISLAND   FAIR      45  25  45 N22       30.16R
HASTINGS       FAIR      45  26  47 N23G29    30.14R
KEARNEY        FAIR      45  21  39 N22G28    30.16S
ORD            FAIR      47  22  37 N18       30.16F
YORK           FAIR      45  32  61 N18G26    30.13S
AURORA         PTSUNNY   45  29  54 N15       30.14S
LEXINGTON      FAIR      47  22  37 N17G24    30.18S
HOLDREGE       FAIR      45  25  45 N17G25    30.16R
HEBRON         CLOUDY    43  32  66 N13       30.14R

...NEBRASKA PANHANDLE...

CITY           SKY/WX    TMP DP  RH WIND       PRES   REMARKS
CHADRON        CLOUDY    47  26  44 NE9       30.18R
ALLIANCE       FAIR      51  21  30 NW20G28   30.16S
SCOTTSBLUFF    PTSUNNY   49  23  36 N16G22    30.18S
SIDNEY         PTSUNNY   48  21  34 N13       30.17F

...WESTERN AND NORTH CENTRAL NEBRASKA...

CITY           SKY/WX    TMP DP  RH WIND       PRES   REMARKS
VALENTINE      FAIR      43  23  45 N14G24    30.21S
AINSWORTH      FAIR      42  23  46 N20G31    30.20S
ONEILL         FAIR      46  24  43 NW22G28   30.18S
BROKEN BOW     FAIR      47  23  38 N22       30.16F
IMPERIAL         N/A     50  22  33 N18       30.17F
NORTH PLATTE   FAIR      50  22  33 N18G24    30.17F
MCCOOK         FAIR      48  24  39 N20       30.17F

...EASTERN NEBRASKA...

CITY           SKY/WX    TMP DP  RH WIND       PRES   REMARKS
NORFOLK        FAIR      46  27  47 NW20G26   30.14S
SO SIOUX CITY  FAIR      45  28  51 NW18      30.14S
TEKAMAH        FAIR      46  29  51 NW20G36   30.15R
COLUMBUS       FAIR      45  25  45 NW21      30.16S
ALBION         FAIR      45  25  46 N18G25    30.15F
OMAHA EPPLEY   CLOUDY    45  31  58 NW18      30.12S
OFFUTT AFB     PTSUNNY   46  31  56 NW12      30.12R
MILLARD        FAIR      45  31  58 NW17G25   30.13R
LINCOLN        CLOUDY    46  31  55 N18       30.14S
NEBRASKA CITY  CLOUDY    43  32  65 N12G18    30.13R
BEATRICE       CLOUDY    42  33  71 N10G17    30.12F
FALLS CITY     LGT RAIN  44  35  70 N12       30.12R

...NORTHERN KANSAS...

CITY           SKY/WX    TMP DP  RH WIND       PRES   REMARKS
GOODLAND       PTSUNNY   41  33  73 N20       30.19R
HILL CITY      CLOUDY    41  37  86 N9        30.17S
NORTON         MOCLDY    45  27  49 N15G24    30.15F
PHILLIPSBURG   CLOUDY    46  34  61 N13G22    30.17R
SMITH CENTER   CLOUDY    43  30  61 N15       30.16R
BELOIT         CLOUDY    43  34  70 N18       30.14R
HAYS           CLOUDY    39  30  70 N23       30.15R WCI  29
RUSSELL        LGT RAIN  42  37  82 N18       30.12R
CONCORDIA      LGT RAIN  42  37  82 N15       30.13R
SALINA         LGT RAIN  45  37  73 N16       30.11R
TOPEKA         CLOUDY    47  39  74 N18G29    30.05S



USA.gov is the U.S. government's official web portal to all federal, state and local government web resources and services.